Terminal Aerodrome Forecast
Issued by NWS

Home | Current Version | Previous Version | Text Only | Print | Product List | Glossary On
Versions: 1 2 3 4 5 6 7 8 9 10 11 12 13 14 15 16 17 18 19 20 21 22 23 24 25 26 27 28 29 30 31 32 33 34 35 36 37 38 39 40 41 42 43 44 45 46 47 48 49 50
198
FTUS43 KDTX 271853 AAA
TAFYIP
TAF AMD
KYIP 271853Z 2719/2818 24009KT P6SM BKN025 OVC040
     FM280200 01005KT P6SM BKN015 OVC080
     FM280700 03006KT 3SM BR OVC008
     FM281500 01010KT P6SM OVC018=

USA.gov is the U.S. government's official web portal to all federal, state and local government web resources and services.